Location: Unspecified
(0.0000°N, 0.0000°E)
Time: 18:43:49
(UTC+02:00)

H-2A R/B - Visible Passes

Search period start: 25 October 2014 00:00
Search period end: 03 November 2014 23:00
Orbit: 264 x 33595 km, 28.0° (Epoch: 23 October)

Date Brightness Start Highest point End Pass type
(mag) Time Alt. Az. Time Alt. Az. Time Alt. Az.
26 Oct 5.2 05:04:14 20° WSW 05:15:48 86° NNW 14:15:27 10° E visible
27 Oct 5.0 11:22:56 10° WNW 19:56:03 25° SW 16:41:19 10° WNW visible
29 Oct 5.7 01:55:49 21° ESE 01:55:49 21° ESE 02:11:44 10° E visible
29 Oct 9.2 06:32:02 10° ENE 09:01:11 18° ENE 10:16:25 10° ENE visible
31 Oct 4.6 03:06:45 55° SSE 03:07:29 56° SE 12:00:16 10° E visible
02 Nov 4.7 04:17:30 44° WSW 04:23:55 90° NNW 13:24:11 10° E visible
03 Nov 5.1 10:23:22 10° WNW 19:05:31 33° SW 19:12:56 10° SSE visible
